Hooper Bay, AK

5:03 PM AKDT on August 24, 2016 (GMT -0800)
Chevak | | Change Station

Elev 75 ft 61.54 °N, 165.60 °W | Updated 7 minutes ago

Overcast
Overcast
55 °F
Feels Like 55 °F
N
7
Wind Variable Wind from North

Today
High -- | Low -- °F
--% Chance of Precip.
Yesterday
High -- | Low -- °F
Precip. -- in
Pressure 30.13 in
Visibility 10.0 miles
Clouds Mostly Cloudy 1600 ft
Overcast 2600 ft
Dew Point 48 °F
Humidity 77%
Rainfall 0.00 in
Snow Depth Not available.
7:34 AM 10:32 PM
Waning Gibbous, 51% visible
METAR PAVA 250056Z AUTO 01006KT 10SM BKN016 OVC026 13/09 A3009 RMK AO2 SLP202 T01280089
Pressure 30.13 in
Visibility 10.0 miles
Clouds Mostly Cloudy 1600 ft
Overcast 2600 ft
Dew Point 48 °F
Humidity 77%
Rainfall 0.00 in
Snow Depth Not available.
7:34 AM 10:32 PM
Waning Gibbous, 51% visible
METAR PAVA 250056Z AUTO 01006KT 10SM BKN016 OVC026 13/09 A3009 RMK AO2 SLP202 T01280089

10-Day Weather Forecast

Almanac

Astronomy

Aug. 24, 2016 Rise Set
Actual Time
Civil Twilight
Nautical Twilight
Astronomical Twilight
Moon
Length of Visible Light
Length of Day
Tomorrow will be .
, % of the Moon is Illuminated

Today's Extremes

State Highs State Lows

Community

WunderPhotos

Upload Photos

1,934,757 photos uploaded!

WunderBlog® & News

Nearby

Air Quality

  Air Quality AQ Index Pollutant
Not available.

Snow Depth

Station Depth Elevation

Earthquake Activity

City Distance Mag. Time & Date
Minimum magnitude displayed is 2.5.

Coastal Water Temperatures

Place Temperature

Stations

Nearby Weather Stations

Station Location Temp. Windchill Dew Point Humidity Wind Precip. Elev Updated Type
                   

Watches & Warnings

There are currently no watches in effect.